Regional Weather Roundup
Issued by NWS

Home | Current Version | Previous Version | Text Only | Print | Product List | Glossary Off
Versions: 1 2 3 4 5 6 7 8 9 10 11 12 13 14 15 16 17 18 19 20 21 22 23 24 25 26 27 28 29 30 31 32 33 34 35 36 37 38 39 40 41 42 43 44 45 46 47 48 49 50

000
ASUS43 KLOT 302000
RWRIL

ILLINOIS REGIONAL WEATHER ROUNDUP
NATIONAL WEATHER SERVICE CHICAGO/ROMEOVILLE IL
300 PM CDT SAT AUG 30 2014

NOTE: "FAIR" INDICATES FEW OR NO CLOUDS BELOW 12,000 FEET WITH NO
SIGNIFICANT WEATHER AND/OR OBSTRUCTIONS TO VISIBILITY.

* THESE STATIONS ARE NOT UNDER NWS QUALITY CONTROL. THEY ALSO MAY NOT
  REPORT WEATHER SUCH AS PRECIPITATION OR FOG.

ILZ001-002-007-009-015-016-024-302100-
NORTHWEST ILLINOIS

CITY           SKY/WX    TMP DP  RH WIND       PRES   REMARKS
MOLINE         PTSUNNY   80  67  64 W9        29.87F HX  82
STERLING*      PTSUNNY   81  68  65 W10       29.87F HX  83
$$

ILZ003-004-008-010-011-017-018-302100-
NORTH CENTRAL ILLINOIS

CITY           SKY/WX    TMP DP  RH WIND       PRES   REMARKS
ROCKFORD       PTSUNNY   80  67  64 W17G23    29.86S HX  82
$$

ILZ005-006-012>014-019>023-302100-
NORTHEAST ILLINOIS

CITY           SKY/WX    TMP DP  RH WIND       PRES   REMARKS
CHICAGO-OHARE  PTSUNNY   81  64  56 W20G31    29.84F HX  82
CHICAGO-MIDWAY PTSUNNY   86  68  54 W17G29    29.84F HX  89
AURORA         PTSUNNY   81  66  60 SW14G23   29.86F HX  83
WAUKEGAN       MOSUNNY   79  64  60 SW18G29   29.82S HX  81
DUPAGE AIRPORT MOSUNNY   82  67  60 SW18G26   29.85F HX  84
WHEELING       PTSUNNY   83  66  56 W14G23    29.85S HX  85
NORTHERLY ISL    N/A     83  63  50 S23         N/A  HX  84
$$

LMZ740>746-302100-
SOUTHERN LAKE MICHIGAN

STATION/POSITION SKY/WX   TEMP    WIND        PRES    VSBY  WAVE
                          AIR SEA DIR/SP/G                  HT/PER
                          (F)     (DEG/KT/KT) (MB)    (MI)  (FT/S)
WAUKEGAN HARBOR            78     260/ 17/ 24   N/A
HARRISON CRIB              80     230/ 25/ 31   N/A
BURNHAM HARBOR             84     240/  6/ 20   N/A
CALUMET HARBOR             81     220/  9/ 21 1009.6F
MICHIGAN CITY              79     170/ 21/ 26   N/A
MICHIGAN CITY 6N           78 72  200/ 14/ 17   N/A           2/ 4
ST. JOSEPH                 75 71  210/ 14/ 17   N/A           2/ 4
$$

ILZ025>027-034>036-040-047-049-050-058-095>099-302100-
WEST-CENTRAL ILLINOIS

CITY           SKY/WX    TMP DP  RH WIND       PRES   REMARKS
QUINCY         MOSUNNY   85  71  63 W12       29.89F HX  90
MACOMB*        PTSUNNY   81  70  69 W7        29.91F HX  84
$$

ILZ028>032-037-038-041>044-048-051>054-059>061-302100-
CENTRAL ILLINOIS

CITY           SKY/WX    TMP DP  RH WIND       PRES   REMARKS
DECATUR        PTSUNNY   82  72  71 S15G24    29.92F HX  87
PEORIA         MOSUNNY   85  70  60 W9        29.88F HX  89
SPRINGFIELD    PTSUNNY   84  71  65 SW10      29.90F HX  89
TAYLORVILLE    NOT AVBL
$$

ILZ033-039-045-046-055>057-062-063-302100-
EAST-CENTRAL ILLINOIS

CITY           SKY/WX    TMP DP  RH WIND       PRES   REMARKS
CHAMPAIGN      CLOUDY    81  72  74 S15       29.93F HX  85
MATTOON        CLOUDY    80  71  74 S10       29.94F HX  84
$$

ILZ079-100>102-302100-
SOUTHWEST ILLINOIS

CITY           SKY/WX    TMP DP  RH WIND       PRES   REMARKS
ALTON          MOSUNNY   84  72  65 S9        29.93F HX  89
BELLEVILLE     CLOUDY    83  74  75 VRB6      29.92F HX  89
CAHOKIA*       PTSUNNY   84  72  67 S6        29.92F HX  89
$$

ILZ064>066-069>071-074>076-080>082-084>086-088>090-092>094-302100-
SOUTH-CENTRAL ILLINOIS

CITY           SKY/WX    TMP DP  RH WIND       PRES   REMARKS
CARBONDALE     CLOUDY    77  73  87 S12       29.97F
MARION         CLOUDY    79  73  83 S9        29.99F HX  82
MT. VERNON     CLOUDY    79  70  73 S14       29.98S HX  81
$$

ILZ067-068-072-073-078-083-087-091-302100-
SOUTHEAST ILLINOIS

CITY           SKY/WX    TMP DP  RH WIND       PRES   REMARKS
LAWRENCEVILLE  CLOUDY    79  73  82 SW12      29.98F HX  82
ROBINSON*      CLOUDY    80  74  83 S10       29.98F HX  84
$$

ABBREVIATIONS USED IN REMARKS
   TC - TEMPERATURE IN CELSIUS
  WCI - WIND CHILL INDEX
   HX - HEAT INDEX
  VSB - VISIBILITY
$$



USA.gov is the U.S. government's official web portal to all federal, state and local government web resources and services.